User: anonymous   Login
Location: Strohbehn Observatory
(42.4649°N, 93.8239°W)
Time: 03:12:26
(UTC-05:00)
Language:

SL-16 R/B - Orbit

View from above orbital plane
View from above orbital plane
View from above satellite
View from above satellite

Ground track
Ground track

The orbit data is extracted from the following two-line orbital elements,

1 31793U 07029B   15124.44133124  .00000280  00000-0  17139-3 0  9990
2 31793 070.9770 216.4481 0002445 262.8215 169.0962 14.14328778405177
Epoch (UTC): 04 May 2015 10:35:31
Eccentricity: 0.0002445
inclination: 70.9770°
perigee height: 843 km
apogee height: 846 km
right ascension of ascending node: 216.4481°
argument of perigee: 262.8215°
revolutions per day: 14.14328778
mean anomaly at epoch: 169.0962°
orbit number at epoch: 40517

The dashed part of the orbit path shows where the satellite is in the earth's shadow,  

DLR